Time,TemperatureF,DewpointF,PressureIn,WindDirection,WindDirectionDegrees,WindSpeedMPH,WindSpeedGustMPH,Humidity,HourlyPrecipIn,Conditions,Clouds,dailyrainin,SolarRadiationWatts/m^2,SoftwareType,DateUTC
2013-02-22 00:01:00,39.0,5.0,-100.00,NW,309,3.0,9.0,24,0.00,,,0.00,0.000000,,2013-02-22 08:01:00,
2013-02-22 00:11:00,39.0,5.0,-100.00,NW,309,3.0,9.0,24,0.00,,,0.00,0.000000,,2013-02-22 08:11:00,
2013-02-22 00:21:00,39.0,5.0,-100.00,NW,309,3.0,9.0,24,0.00,,,0.00,0.000000,,2013-02-22 08:21:00,
2013-02-22 00:52:00,40.0,6.0,-100.00,SSE,154,0.0,5.0,24,0.00,,,0.00,0.000000,,2013-02-22 08:52:00,
2013-02-22 01:03:00,40.0,6.0,-100.00,SSE,154,0.0,5.0,24,0.00,,,0.00,0.000000,,2013-02-22 09:03:00,
2013-02-22 01:11:00,40.0,6.0,-100.00,SSE,154,0.0,5.0,24,0.00,,,0.00,0.000000,,2013-02-22 09:11:00,
2013-02-22 01:21:00,40.0,6.0,-100.00,SSE,154,0.0,5.0,24,0.00,,,0.00,0.000000,,2013-02-22 09:21:00,
2013-02-22 01:52:00,38.0,5.0,-100.00,West,275,2.0,7.0,25,0.00,,,0.00,0.000000,,2013-02-22 09:52:00,
2013-02-22 02:01:00,38.0,5.0,-100.00,West,275,2.0,7.0,25,0.00,,,0.00,0.000000,,2013-02-22 10:01:00,
2013-02-22 02:11:00,38.0,5.0,-100.00,West,275,2.0,7.0,25,0.00,,,0.00,0.000000,,2013-02-22 10:11:00,
2013-02-22 02:21:00,38.0,5.0,-100.00,West,275,2.0,7.0,25,0.00,,,0.00,0.000000,,2013-02-22 10:21:00,
2013-02-22 02:52:00,40.0,7.0,-100.00,SSE,164,1.0,10.0,25,0.00,,,0.00,0.000000,,2013-02-22 10:52:00,
2013-02-22 03:01:00,40.0,7.0,-100.00,SSE,164,1.0,10.0,25,0.00,,,0.00,0.000000,,2013-02-22 11:01:00,
2013-02-22 03:11:00,40.0,7.0,-100.00,SSE,164,1.0,10.0,25,0.00,,,0.00,0.000000,,2013-02-22 11:11:00,
2013-02-22 03:21:00,40.0,7.0,-100.00,SSE,164,1.0,10.0,25,0.00,,,0.00,0.000000,,2013-02-22 11:21:00,
2013-02-22 03:52:00,39.0,6.0,-100.00,SSW,197,0.0,7.0,25,0.00,,,0.00,0.000000,,2013-02-22 11:52:00,
2013-02-22 04:02:00,39.0,6.0,-100.00,SSW,197,0.0,7.0,25,0.00,,,0.00,0.000000,,2013-02-22 12:02:00,
2013-02-22 04:52:00,40.0,6.0,-100.00,South,170,0.0,4.0,24,0.00,,,0.00,0.000000,,2013-02-22 12:52:00,
2013-02-22 05:01:00,40.0,6.0,-100.00,South,170,0.0,4.0,24,0.00,,,0.00,0.000000,,2013-02-22 13:01:00,
2013-02-22 05:11:00,40.0,6.0,-100.00,South,170,0.0,4.0,24,0.00,,,0.00,0.000000,,2013-02-22 13:11:00,
2013-02-22 05:22:00,40.0,6.0,-100.00,South,170,0.0,4.0,24,0.00,,,0.00,0.000000,,2013-02-22 13:22:00,
2013-02-22 05:52:00,39.0,6.0,-100.00,East,84,0.0,4.0,25,0.00,,,0.00,0.000000,,2013-02-22 13:52:00,
2013-02-22 06:01:00,39.0,6.0,-100.00,East,84,0.0,4.0,25,0.00,,,0.00,0.000000,,2013-02-22 14:01:00,
2013-02-22 06:11:00,39.0,6.0,-100.00,East,84,0.0,4.0,25,0.00,,,0.00,0.000000,,2013-02-22 14:11:00,
2013-02-22 06:21:00,39.0,6.0,-100.00,East,84,0.0,4.0,25,0.00,,,0.00,0.000000,,2013-02-22 14:21:00,
2013-02-22 06:53:00,38.0,7.0,-100.00,SSE,164,0.0,3.0,27,0.00,,,0.00,0.000000,,2013-02-22 14:53:00,
2013-02-22 07:01:00,38.0,7.0,-100.00,SSE,164,0.0,3.0,27,0.00,,,0.00,0.000000,,2013-02-22 15:01:00,
2013-02-22 07:11:00,38.0,7.0,-100.00,SSE,164,0.0,3.0,27,0.00,,,0.00,0.000000,,2013-02-22 15:11:00,
2013-02-22 07:21:00,38.0,7.0,-100.00,SSE,164,0.0,3.0,27,0.00,,,0.00,0.000000,,2013-02-22 15:21:00,
2013-02-22 07:52:00,40.0,6.0,-100.00,SSE,164,1.0,4.0,24,0.00,,,0.00,37.000000,,2013-02-22 15:52:00,
2013-02-22 08:01:00,40.0,6.0,-100.00,SSE,164,1.0,4.0,24,0.00,,,0.00,37.000000,,2013-02-22 16:01:00,
2013-02-22 08:11:00,40.0,6.0,-100.00,SSE,164,1.0,4.0,24,0.00,,,0.00,37.000000,,2013-02-22 16:11:00,
2013-02-22 08:21:00,40.0,6.0,-100.00,SSE,164,1.0,4.0,24,0.00,,,0.00,37.000000,,2013-02-22 16:21:00,
2013-02-22 08:52:00,44.0,9.0,-100.00,SE,143,2.0,10.0,23,0.00,,,0.00,283.000000,,2013-02-22 16:52:00,
2013-02-22 09:01:00,44.0,9.0,-100.00,SE,143,2.0,10.0,23,0.00,,,0.00,283.000000,,2013-02-22 17:01:00,
2013-02-22 09:52:00,47.0,6.0,-100.00,NE,42,0.0,7.0,18,0.00,,,0.00,512.000000,,2013-02-22 17:52:00,
2013-02-22 10:01:00,47.0,6.0,-100.00,NE,42,0.0,7.0,18,0.00,,,0.00,512.000000,,2013-02-22 18:01:00,
2013-02-22 10:12:00,47.0,6.0,-100.00,NE,42,0.0,7.0,18,0.00,,,0.00,512.000000,,2013-02-22 18:12:00,
2013-02-22 10:22:00,47.0,6.0,-100.00,NE,42,0.0,7.0,18,0.00,,,0.00,512.000000,,2013-02-22 18:22:00,
2013-02-22 10:52:00,52.0,7.0,-100.00,SSE,166,6.0,11.0,16,0.00,,,0.00,752.000000,,2013-02-22 18:52:00,
2013-02-22 11:01:00,52.0,7.0,-100.00,SSE,166,6.0,11.0,16,0.00,,,0.00,752.000000,,2013-02-22 19:01:00,
2013-02-22 11:11:00,52.0,7.0,-100.00,SSE,166,6.0,11.0,16,0.00,,,0.00,752.000000,,2013-02-22 19:11:00,
2013-02-22 11:21:00,52.0,7.0,-100.00,SSE,166,6.0,11.0,16,0.00,,,0.00,752.000000,,2013-02-22 19:21:00,
2013-02-22 11:52:00,52.0,6.0,-100.00,South,171,4.0,13.0,15,0.00,,,0.00,904.000000,,2013-02-22 19:52:00,
2013-02-22 12:01:00,52.0,6.0,-100.00,South,171,4.0,13.0,15,0.00,,,0.00,904.000000,,2013-02-22 20:01:00,
2013-02-22 12:11:00,52.0,6.0,-100.00,South,171,4.0,13.0,15,0.00,,,0.00,904.000000,,2013-02-22 20:11:00,
2013-02-22 12:21:00,52.0,6.0,-100.00,South,171,4.0,13.0,15,0.00,,,0.00,904.000000,,2013-02-22 20:21:00,
2013-02-22 12:52:00,56.0,6.0,-100.00,South,172,6.0,14.0,13,0.00,,,0.00,967.000000,,2013-02-22 20:52:00,
2013-02-22 13:01:00,56.0,6.0,-100.00,South,172,6.0,14.0,13,0.00,,,0.00,967.000000,,2013-02-22 21:01:00,
2013-02-22 13:11:00,56.0,6.0,-100.00,South,172,6.0,14.0,13,0.00,,,0.00,967.000000,,2013-02-22 21:11:00,
2013-02-22 13:21:00,56.0,6.0,-100.00,South,172,6.0,14.0,13,0.00,,,0.00,967.000000,,2013-02-22 21:21:00,
2013-02-22 13:52:00,55.0,5.0,-100.00,SSE,163,10.0,18.0,13,0.00,,,0.00,938.000000,,2013-02-22 21:52:00,
2013-02-22 14:01:00,55.0,5.0,-100.00,SSE,163,10.0,18.0,13,0.00,,,0.00,938.000000,,2013-02-22 22:01:00,
2013-02-22 14:11:00,55.0,5.0,-100.00,SSE,163,10.0,18.0,13,0.00,,,0.00,938.000000,,2013-02-22 22:11:00,
2013-02-22 14:21:00,55.0,5.0,-100.00,SSE,163,10.0,18.0,13,0.00,,,0.00,938.000000,,2013-02-22 22:21:00,
2013-02-22 14:52:00,58.0,7.0,-100.00,South,176,8.0,19.0,13,0.00,,,0.00,837.000000,,2013-02-22 22:52:00,
2013-02-22 15:01:00,58.0,7.0,-100.00,South,176,8.0,19.0,13,0.00,,,0.00,837.000000,,2013-02-22 23:01:00,
2013-02-22 15:11:00,58.0,7.0,-100.00,South,176,8.0,19.0,13,0.00,,,0.00,837.000000,,2013-02-22 23:11:00,
2013-02-22 15:21:00,58.0,7.0,-100.00,South,176,8.0,19.0,13,0.00,,,0.00,837.000000,,2013-02-22 23:21:00,
2013-02-22 15:52:00,56.0,6.0,-100.00,South,174,7.0,16.0,13,0.00,,,0.00,648.000000,,2013-02-22 23:52:00,
2013-02-22 16:01:00,56.0,6.0,-100.00,South,174,7.0,16.0,13,0.00,,,0.00,648.000000,,2013-02-23 00:01:00,
2013-02-22 16:11:00,56.0,6.0,-100.00,South,174,7.0,16.0,13,0.00,,,0.00,648.000000,,2013-02-23 00:11:00,
2013-02-22 16:21:00,56.0,6.0,-100.00,South,174,7.0,16.0,13,0.00,,,0.00,648.000000,,2013-02-23 00:21:00,
2013-02-22 16:52:00,55.0,5.0,-100.00,South,170,9.0,14.0,13,0.00,,,0.00,411.000000,,2013-02-23 00:52:00,
2013-02-22 17:01:00,55.0,5.0,-100.00,South,170,9.0,14.0,13,0.00,,,0.00,411.000000,,2013-02-23 01:01:00,
2013-02-22 17:11:00,55.0,5.0,-100.00,South,170,9.0,14.0,13,0.00,,,0.00,411.000000,,2013-02-23 01:11:00,
2013-02-22 17:21:00,55.0,5.0,-100.00,South,170,9.0,14.0,13,0.00,,,0.00,411.000000,,2013-02-23 01:21:00,
2013-02-22 17:52:00,49.0,6.0,-100.00,South,183,4.0,14.0,17,0.00,,,0.00,57.000000,,2013-02-23 01:52:00,
2013-02-22 18:01:00,49.0,6.0,-100.00,South,183,4.0,14.0,17,0.00,,,0.00,57.000000,,2013-02-23 02:01:00,
2013-02-22 18:11:00,49.0,6.0,-100.00,South,183,4.0,14.0,17,0.00,,,0.00,57.000000,,2013-02-23 02:11:00,
2013-02-22 18:21:00,49.0,6.0,-100.00,South,183,4.0,14.0,17,0.00,,,0.00,57.000000,,2013-02-23 02:21:00,
2013-02-22 18:52:00,47.0,7.0,-100.00,South,183,7.0,10.0,19,0.00,,,0.00,3.000000,,2013-02-23 02:52:00,
2013-02-22 19:01:00,47.0,7.0,-100.00,South,183,7.0,10.0,19,0.00,,,0.00,3.000000,,2013-02-23 03:01:00,
2013-02-22 19:11:00,47.0,7.0,-100.00,South,183,7.0,10.0,19,0.00,,,0.00,3.000000,,2013-02-23 03:11:00,
2013-02-22 19:21:00,47.0,7.0,-100.00,South,183,7.0,10.0,19,0.00,,,0.00,3.000000,,2013-02-23 03:21:00,
2013-02-22 19:52:00,45.0,5.0,-100.00,SW,229,0.0,9.0,19,0.00,,,0.00,0.000000,,2013-02-23 03:52:00,
2013-02-22 20:01:00,45.0,5.0,-100.00,SW,229,0.0,9.0,19,0.00,,,0.00,0.000000,,2013-02-23 04:01:00,
2013-02-22 20:21:00,45.0,5.0,-100.00,SW,229,0.0,9.0,19,0.00,,,0.00,0.000000,,2013-02-23 04:21:00,
2013-02-22 20:52:00,45.0,7.0,-100.00,NW,316,5.0,7.0,21,0.00,,,0.00,0.000000,,2013-02-23 04:52:00,
2013-02-22 21:02:00,45.0,7.0,-100.00,NW,316,5.0,7.0,21,0.00,,,0.00,0.000000,,2013-02-23 05:02:00,
2013-02-22 21:11:00,45.0,7.0,-100.00,NW,316,5.0,7.0,21,0.00,,,0.00,0.000000,,2013-02-23 05:11:00,
2013-02-22 21:22:00,45.0,7.0,-100.00,NW,316,5.0,7.0,21,0.00,,,0.00,0.000000,,2013-02-23 05:22:00,
2013-02-22 21:52:00,45.0,9.0,-100.00,WSW,248,0.0,6.0,23,0.00,,,0.00,0.000000,,2013-02-23 05:52:00,
2013-02-22 22:01:00,45.0,9.0,-100.00,WSW,248,0.0,6.0,23,0.00,,,0.00,0.000000,,2013-02-23 06:01:00,
2013-02-22 22:11:00,45.0,9.0,-100.00,WSW,248,0.0,6.0,23,0.00,,,0.00,0.000000,,2013-02-23 06:11:00,
2013-02-22 22:21:00,45.0,9.0,-100.00,WSW,248,0.0,6.0,23,0.00,,,0.00,0.000000,,2013-02-23 06:21:00,
2013-02-22 22:52:00,46.0,11.0,-100.00,NW,320,3.0,8.0,24,0.00,,,0.00,0.000000,,2013-02-23 06:52:00,
2013-02-22 23:01:00,46.0,11.0,-100.00,NW,320,3.0,8.0,24,0.00,,,0.00,0.000000,,2013-02-23 07:01:00,
2013-02-22 23:11:00,46.0,11.0,-100.00,NW,320,3.0,8.0,24,0.00,,,0.00,0.000000,,2013-02-23 07:11:00,
2013-02-22 23:21:00,46.0,11.0,-100.00,NW,320,3.0,8.0,24,0.00,,,0.00,0.000000,,2013-02-23 07:21:00,
2013-02-22 23:52:00,45.0,15.0,-100.00,South,185,0.0,4.0,29,0.00,,,0.00,0.000000,,2013-02-23 07:52:00,